Tracking 35237 objects as of 6-Sep-2026
HD Live streaming from Space Station
objects crossing your sky now

STARLINK-36485

Track STARLINK-36485 now!
10-day predictions
STARLINK-36485 is classified as:


NORAD ID: 67312
Int'l Code: 2026-002H
Launch date: January 4, 2026
Source: United States (US)
Launch site: AIR FORCE EASTERN TEST RANGE (AFETR)
Your satellite tracking list
Your tracking list is empty




NASA's NSSDC Master Catalog

Two Line Element Set (TLE):
1 67312U 26002H   26248.43939053  .00008793  00000-0  32863-3 0  9999
2 67312  43.0024  29.7563 0001046 212.4348 147.6439 15.27582594 38576
Source of the keplerian elements: AFSPC